Regional Weather Roundup
Issued by NWS Cleveland, OH

Home | Current Version | Previous Version | Graphics & Text | Print | Product List | Glossary On
Versions: 1 2 3 4 5 6 7 8 9 10 11 12 13 14 15 16 17 18 19 20 21 22 23 24 25 26 27 28 29 30 31 32 33 34 35 36 37 38 39 40 41 42 43 44 45 46 47 48 49 50
000
ASUS41 KCLE 280502
RWRCLE
OHIO REGIONAL WEATHER ROUNDUP
NATIONAL WEATHER SERVICE CLEVELAND, OH
100 AM EDT THU AUG 28 2014

NOTE: "FAIR" INDICATES FEW OR NO CLOUDS BELOW 12,000 FEET WITH NO
SIGNIFICANT WEATHER AND/OR OBSTRUCTIONS TO VISIBILITY.

OHZ001>008-015>018-024>027-034-035-043-044-280600-
   NORTHWEST OHIO

CITY           SKY/WX    TMP DP  RH WIND       PRES   REMARKS
DEFIANCE       PTCLDY    65  60  84 CALM      30.11S
FINDLAY        PTCLDY    69  63  81 NE6       30.09S
TOLEDO EXPRESS PTCLDY    64  58  80 CALM      30.10S
TOLEDO EXEC    MOCLDY    68  62  81 NE5       30.11S
LIMA           CLEAR     67  64  90 CALM      30.10R
$$

OHZ009>014-019>023-028>033-038-089-280600-
   NORTHEAST OHIO

CITY           SKY/WX    TMP DP  RH WIND       PRES   REMARKS
CLE-HOPKINS    MOCLDY    66  58  75 NE9       30.12S
CLE-LAKEFRONT  PTCLDY    67  57  70 E8        30.09F
CUY CO. ARPT   NOT AVBL
LORAIN-ELYRIA  MOCLDY    68  59  73 NE3       30.11R
ASHTABULA      CLEAR     58  54  86 CALM      30.11S
AKRON-CANTON   MOCLDY    65  58  78 NE7       30.10F
WOOSTER        MOCLDY    63  60  90 NE5       30.11S
MANSFIELD      PTCLDY    64  62  93 CALM      30.11S
YOUNGSTOWN     MOCLDY    61  55  81 N7        30.10S
$$

OHZ042-051>053-060>062-070>072-077>081-280600-
  SOUTHWEST OHIO

CITY           SKY/WX    TMP DP  RH WIND       PRES   REMARKS
CINC-COVINGTON PTCLDY    76  69  79 N6        30.07F
CINC-LUNKEN    PTCLDY    73  70  90 SE3       30.06S
HAMILTON       CLEAR     70  69  97 NW3       30.08S
DAYTON         CLEAR     70  66  87 NE7       30.10R
WRIGHT-PAT AFB CLEAR     71  67  86 NE7       30.08S
DAYTON GENERAL CLEAR     70  66  87 NE5       30.07S
WILMINGTON     CLEAR     68  66  93 NE5       30.08S FOG
$$

OHZ036-037-039>041-045>050-054>059-063>069-073>076-082>088-280600-
  CENTRAL AND SOUTHEAST OHIO

CITY           SKY/WX    TMP DP  RH WIND       PRES   REMARKS
COLUMBUS       CLEAR     70  61  73 NE5       30.08R
OSU AIRPORT    CLEAR     68  60  75 NE7       30.09R
BOLTON FIELD   CLEAR     67  63  86 NE5       30.09S
RICKENBACK AFB CLEAR     69  60  73 NE5       30.07S
NEWARK         CLEAR     67  62  84 CALM      30.08S
MARION         CLEAR     63  61  93 CALM      30.10S
LANCASTER      CLEAR     67  63  87 CALM      30.08S
ZANESVILLE     CLEAR     67  62  84 N5        30.08R
NEW PHILLY     PTCLDY    64  60  87 CALM      30.09F
$$


USA.gov is the U.S. government's official web portal to all federal, state and local government web resources and services.